Flag for U.S.A. Weather past 2 weeks in Hartford, Connecticut, U.S.A.

Now
53 °F

Sunny.


Feels Like: 49 °F
Forecast: 46 / 66 °F
Wind: 14 mph from West

Location: Hartford-Brainard Airport

Current Time: May 23, 2015 at 11:40:23 AM

Latest Report: May 23, 2015 at 10:53 AM


Visibility: 10 mi

Pressure: 30.38 "Hg

Humidity: 32%

Dew point: 24 °F

Location of HartfordLocation

Historic Weather in Hartford — Graph

°F

Hartford temperature yesterday

Maximum temperature yesterday: 71 °F (at 11:53 AM)
Minimum temperature yesterday: 51 °F (at 5:53 AM)
Average temperature yesterday: 62 °F

Past Weeks' High & Low Weather Summary

 TemperatureHumidityPressure
High87 °F (May 17, 4:53 PM)97% (May 19, 6:53 AM)30.39 "Hg (May 19, 6:53 AM)
Low41 °F (May 14, 5:53 AM)18% (May 14, 6:53 PM)29.67 "Hg (May 12, 4:53 PM)
Average64 °F61%30.07 "Hg
* Reported May 8 9:53 AM — May 23 9:53 AM, Hartford, Weather by CustomWeather, © 2015

Note: Actual official high and low records may vary slightly from our data, if they occured in-between our weather recording intervals... More about our weather records

Advertising

Hartford weather history for previous 24 hours

 ConditionsComfort  
Time TempWeatherWind HumidityBarometerVisibility
9:53 AM
Sat, May 23
51 °FSunny.8 mph35%30.38 "Hg10 mi
8:53 AM49 °FSunny.8 mph35%30.38 "Hg10 mi
7:53 AM48 °FSunny.13 mph36%30.36 "Hg10 mi
6:53 AM47 °FSunny.10 mph46%30.34 "Hg10 mi
5:53 AM46 °FClear.10 mph48%30.31 "Hg10 mi
4:53 AM47 °FClear.6 mph46%30.27 "Hg10 mi
3:53 AM48 °FClear.7 mph43%30.23 "Hg10 mi
2:53 AM51 °FClear.7 mph38%30.19 "Hg10 mi
1:53 AM53 °FClear.13 mph30%30.16 "Hg10 mi
12:53 AM55 °FClear.6 mph34%30.14 "Hg10 mi
11:53 PM
Fri, May 22
55 °FClear.5 mph35%30.12 "Hg10 mi
10:53 PM57 °FClear.6 mph32%30.10 "Hg10 mi
9:53 PM59 °FClear.7 mph31%30.07 "Hg10 mi
8:53 PM61 °FSunny.8 mph30%30.03 "Hg10 mi
7:53 PM64 °FSunny.13 mph26%29.99 "Hg10 mi
6:53 PM67 °FSunny.8 mph24%29.94 "Hg10 mi
5:53 PM69 °FSunny.12 mph25%29.92 "Hg10 mi
4:53 PM70 °FPassing clouds.10 mph25%29.89 "Hg10 mi
3:53 PM71 °FPassing clouds.9 mph26%29.87 "Hg10 mi
2:53 PM70 °FScattered clouds.12 mph28%29.85 "Hg10 mi
1:53 PM71 °FBroken clouds.13 mph31%29.85 "Hg10 mi
12:53 PM70 °FScattered clouds.13 mph31%29.85 "Hg10 mi
11:53 AM71 °FSunny.10 mph31%29.85 "Hg10 mi
Weather by CustomWeather, © 2015

See weather overviewHow to use our weather pages